This is the latest recevied weather packets stored in our database for station/object F5MAP-5. If no packets are shown the sender has not sent any weather packets the latest 10 day(s).
| Time | Temp. | Humidity | Pressure | Rain* | Wind** | Luminosity | Snow |
|---|---|---|---|---|---|---|---|
| 1778157134 | 15° C | 79% | 1015.4 hPa | 0 mm | - | 445 W/m² | - |
| 1778157134 | 15° C | 79% | 1015.4 hPa | 0 mm | - | 445 W/m² | - |
| 1778156533 | 14.44° C | 81% | 1015.4 hPa | 0 mm | - | 454 W/m² | - |
| 1778155935 | 13.89° C | 82% | 1015.3 hPa | 0 mm | - | 429 W/m² | - |
| 1778155335 | 13.89° C | 84% | 1015.3 hPa | 0 mm | - | 396 W/m² | - |
| 1778154733 | 13.89° C | 85% | 1015.3 hPa | 0 mm | - | 311 W/m² | - |
| 1778154133 | 13.33° C | 85% | 1015.3 hPa | 0 mm | - | 269 W/m² | - |
| 1778153533 | 13.89° C | 84% | 1015.3 hPa | 0 mm | - | 209 W/m² | - |
| 1778152933 | 13.89° C | 85% | 1015.3 hPa | 0 mm | - | 128 W/m² | - |
| 1778152332 | 13.89° C | 85% | 1015.3 hPa | 0 mm | - | 135 W/m² | - |
| 1778151732 | 13.89° C | 86% | 1015.3 hPa | 0 mm | - | 192 W/m² | - |
| 1778151133 | 13.89° C | 86% | 1015.2 hPa | 0 mm | - | 250 W/m² | - |
| 1778150533 | 13.89° C | 88% | 1015.3 hPa | 0 mm | - | 156 W/m² | - |
| 1778149933 | 13.89° C | 89% | 1015.2 hPa | 0 mm | - | 160 W/m² | - |
| 1778149332 | 13.89° C | 91% | 1015.3 hPa | 0 mm | - | 190 W/m² | - |
| 1778148732 | 13.33° C | 92% | 1015.3 hPa | 0 mm | - | 214 W/m² | - |
| 1778148132 | 13.33° C | 92% | 1015.3 hPa | 0 mm | - | 211 W/m² | - |
| 1778147534 | 13.33° C | 93% | 1015.3 hPa | 0 mm | - | 216 W/m² | - |
| 1778146933 | 13.33° C | 93% | 1015.3 hPa | 0 mm | - | 211 W/m² | - |
| 1778146333 | 12.78° C | 94% | 1015.2 hPa | 0 mm | - | 241 W/m² | - |
| 1778145733 | 12.78° C | 94% | 1015.2 hPa | 0 mm | - | 248 W/m² | - |
| 1778145133 | 12.78° C | 95% | 1015.2 hPa | 0 mm | - | 341 W/m² | - |
| 1778144533 | 12.22° C | 95% | 1015.1 hPa | 0 mm | - | 304 W/m² | - |
| 1778143933 | 12.22° C | 95% | 1015.1 hPa | 0 mm | - | 332 W/m² | - |
| 1778143333 | 11.67° C | 95% | 1014.9 hPa | 0 mm | - | 339 W/m² | - |
* Rain latest hour (hover to see other rain measurements)
** Current wind speed in m/s (hover to see current wind gust speed)